Location: Suburban Lights Observatory
(43.1572°N, 89.2764°W)
Time: 23:06:14
(UTC-05:00)

Daily predictions for brighter satellites

Satellite Brightness Start Highest point End
(mag) Time Altitude Azimuth Time Altitude Azimuth Time Altitude Azimuth
Iridium 4 Rocket 4.1 21:11:38 10° SSE 21:17:06 47° E 21:22:13 10° NNE
Cosmos 2266 Rocket 4.1 21:12:11 10° N 21:18:36 70° E 21:24:54 10° SSE
Lacrosse 5 2.6 21:17:16 10° S 21:21:40 30° SE 21:26:03 10° ENE
Cosmos 1378 4.1 21:19:35 10° SSW 21:23:12 49° W 21:26:50 10° N
NOSS 2-3 (C) 3.8 21:19:30 10° SSW 21:24:03 85° SE 21:29:26 10° NE
Cosmos 1238 Rocket 3.5 21:23:49 10° SE 21:26:10 22° E 21:28:32 10° NE
CZ-4B DEB 4.5 21:25:10 10° SSE 21:28:37 90° W 21:32:06 10° NNW
USA 215 4.1 21:23:23 10° SSE 21:29:31 42° SW 21:35:41 10° WNW
Aureole 1 Rocket 2.8 21:26:36 10° S 21:29:31 40° ESE 21:32:57 10° NNE
Cosmos 1400 Rocket 2.9 21:27:45 10° SSW 21:31:49 83° WNW 21:35:50 10° N
MetOp-B 4.3 21:26:53 10° SSE 21:32:08 60° ENE 21:37:25 10° N
Cosmos 1452 Rocket 3.6 21:28:24 10° NNW 21:33:43 87° WSW 21:39:00 10° SSE
Cosmos 1943 3.9 21:31:21 10° NW 21:36:50 51° WSW 21:42:15 10° S
Cosmos 1420 Rocket 4.0 21:31:55 10° NNW 21:37:09 89° ENE 21:42:19 10° SSE
Spot 2 Rocket 4.3 21:33:56 10° S 21:38:49 50° W 21:43:45 10° NNW
Cosmos 1346 Rocket 3.6 21:39:51 10° N 21:43:35 36° ENE 21:46:37 14° SE
BREEZE-M DEB (TANK) 3.6 21:34:10 10° SW 21:45:19 63° SSE 21:48:46 10° ENE
Cosmos 158 Rocket 4.4 21:42:00 10° SSW 21:47:18 69° WNW 21:52:31 10° NNE
SPOT 1/Viking Rocket 4.3 21:43:54 13° SE 21:48:08 38° ENE 21:52:52 10° N
H-2A R/B 2.1 21:43:16 10° SSE 21:48:31 82° ENE 21:53:56 10° NNW
ERS-2 4.3 21:47:33 10° SSW 21:50:32 23° W 21:53:33 10° NW
Cosmos 1726 3.6 21:53:18 10° NNE 21:56:24 24° ENE 21:58:22 16° ESE
ARGOS 3.4 21:52:11 10° S 21:57:35 69° WSW 22:03:01 10° NNW
SL-8 R/B 4.4 21:55:31 10° SSW 21:59:45 31° SE 22:04:01 10° ENE
Cosmos 1844 4.4 21:54:55 10° SSE 22:00:00 35° ESE 22:05:10 10° NE
DMSP B5D2-2 4.3 21:55:09 10° NNE 22:00:18 53° E 22:05:19 10° S
Meteor 1-24 Rocket 3.9 21:54:29 10° S 22:00:28 71° E 22:06:29 10° NNE
Cosmos-2242 3.1 21:58:10 10° N 22:02:33 65° E 22:05:52 17° SSE
OAO 3 Rocket 4.1 21:58:20 10° SW 22:02:35 29° S 22:05:27 17° ESE
Cosmos 1269 Rocket 4.0 21:58:36 10° S 22:03:50 65° ESE 22:09:06 10° NNE
Meteor 2-5 Rocket 4.1 22:00:19 10° SSW 22:06:15 72° WNW 22:12:11 10° N
Cosmos 1844 Rocket 2.9 22:01:07 10° S 22:06:35 52° ESE 22:12:03 10° NE
Cosmos 1437 2.6 22:04:05 10° N 22:07:15 79° E 22:09:11 22° SSE
Resurs 01 Rocket 4.2 22:06:54 10° SW 22:09:36 16° W 22:12:20 10° NW
Landsat 7 4.3 22:07:17 18° SE 22:10:31 48° ENE 22:15:06 10° N
SL-08 RB Rocket 4.3 22:10:02 11° S 22:14:26 56° W 22:19:03 10° NNW
Cosmos 1953 Rocket 3.8 22:10:46 10° SSW 22:15:05 70° W 22:19:29 10° N
Cosmos 2084 3.2 22:12:59 10° NNW 22:16:51 69° NE 22:19:00 24° SE
USA 238 DEB 4.1 22:10:54 10° NNW 22:17:58 61° NE 22:23:31 18° SE
USA 238 4.1 22:11:01 10° NNW 22:18:04 60° NE 22:23:37 18° SE
Cosmos 1758 Rocket 4.5 22:16:37 10° SSW 22:20:56 49° WNW 22:25:16 10° N
CZ-2C R/B 4.0 22:18:55 19° SE 22:22:41 41° ENE 22:28:03 10° N
Cosmos 494 Rocket 4.1 22:18:57 14° S 22:23:23 55° ESE 22:28:32 10° NNE
ATLAS 3B R/B 3.2 22:17:32 10° NNW 22:24:00 50° NE 22:28:56 17° ESE
Meteor 2-1 Rocket 4.3 22:19:03 10° N 22:25:00 74° E 22:29:07 21° SSE
Cosmos 2082 Rocket 4.4 22:21:58 10° N 22:25:22 16° NE 22:28:46 10° E
Cosmos 1908 3.1 22:21:39 10° N 22:25:31 79° E 22:27:37 26° SSE
Cosmos 1417 Rocket 4.5 22:22:24 13° S 22:28:08 76° E 22:34:27 10° N
Helios 1A 2.9 22:26:51 23° SSE 22:29:23 88° WSW 22:33:37 10° NNW
Terra 2.2 22:27:13 24° SE 22:29:51 49° ENE 22:34:27 10° N
Iridium 81 3.5 22:30:59 51° SSW 22:31:27 76° W 22:34:05 10° N
Cosmos 2251 Rocket 4.2 22:33:44 25° SSE 22:36:04 37° ESE 22:40:56 10° NE
Cosmos 1745 Rocket 4.0 22:36:35 10° N 22:42:56 73° E 22:46:47 25° SSE
Spot 1 4.1 22:41:53 31° SSE 22:43:52 69° ENE 22:48:22 10° N
ATLAS 2AS CENTAUR R/B 3.1 22:38:12 10° SW 22:46:02 89° NW 22:54:14 10° NE
Helios 1B rocket 2.3 22:42:46 10° NNE 22:46:55 84° ESE 22:49:09 26° S
ERS-1 Rocket 4.2 22:46:48 13° SSW 22:50:47 35° W 22:55:25 10° NNW
Cosmos 2221 3.2 22:47:41 10° N 22:51:49 41° ENE 22:53:10 32° ESE
Cosmos 1340 2.6 22:48:36 10° N 22:52:24 87° W 22:53:42 40° S
CZ-2C R/B 3.1 22:47:24 10° NNE 22:52:34 42° E 22:54:35 30° SE
SPOT 5 3.6 22:50:02 21° S 22:53:17 53° W 22:58:24 10° NNW
NOSS 3-2 (C) 4.5 22:48:01 10° NNW 22:55:19 54° NE 23:01:15 19° ESE
Timation 1 Rocket 4.4 22:50:04 10° SSW 22:56:01 79° WNW 23:02:02 10° NNE
Cosmos 1626 3.3 22:56:30 27° E 22:56:37 27° E 22:59:49 10° NNE
Meteor 1-29 2.8 22:53:56 10° NNE 22:57:22 87° ESE 22:58:17 46° S
Cosmos 921 Rocket 3.8 22:55:25 10° NNW 22:59:43 47° WSW 23:01:51 26° SSW
Meteor 1-21 Rocket 4.3 22:56:13 25° S 22:59:50 76° E 23:05:40 10° NNE
Cosmos 1455 4.4 22:59:10 10° NE 23:01:10 14° ENE 23:01:48 13° E
Cosmos 1300 2.7 22:57:29 10° N 23:01:18 64° E 23:02:11 47° SE
Cosmos 1674 4.1 23:00:49 14° SW 23:03:43 34° WNW 23:07:15 10° N
Lacrosse 5 2.7 22:59:28 10° WSW 23:04:25 52° NW 23:09:23 10° NE
S3M 4.3 23:04:32 17° SSW 23:09:36 69° W 23:16:00 10° N
CARTOSAT-1 4.2 23:13:18 30° SSW 23:15:03 48° W 23:19:15 10° NNW
Cosmos 1709 Rocket 4.1 23:10:28 10° N 23:16:43 66° E 23:19:27 34° SSE
YAOGAN 11 4.2 23:16:59 40° S 23:18:35 75° WSW 23:23:10 10° NNW
Nimbus 7 Rocket 4.4 23:12:39 10° NNE 23:18:41 89° WNW 23:22:26 25° SSW
SL-14 R/B 3.3 23:19:42 44° SSW 23:20:49 71° W 23:24:44 10° N
ALOS 2 4.4 23:20:27 17° E 23:21:51 20° ENE 23:25:02 10° NNE
Cosmos 2278 Rocket 2.1 23:20:27 32° S 23:23:06 71° ESE 23:28:47 10° NNE
NOSS 3-4 (A) 3.5 23:20:16 31° S 23:23:07 56° ESE 23:29:22 10° NE
NOSS 3-4 (C) 3.5 23:20:26 31° S 23:23:12 56° ESE 23:29:27 10° NE
NOSS 2-2 (E) 4.3 23:24:27 32° E 23:24:27 32° E 23:27:40 10° NE
Aureole 3 Rocket 4.4 23:23:27 30° SSE 23:27:40 66° E 23:33:44 10° NNE
COSMOS 2406 3.8 23:22:44 10° NW 23:28:17 49° WSW 23:30:39 31° SSW
Cosmos 1726 4.1 23:28:36 10° NW 23:31:33 22° W 23:32:56 18° WSW
CENTAUR R/B 3.7 23:27:26 10° NNW 23:35:03 51° NE 23:41:25 18° ESE
Cosmos 1461 3.1 23:34:20 51° S 23:35:22 68° ESE 23:40:08 10° NE
Cosmos 1766 Rocket 4.1 23:37:40 41° ESE 23:38:04 42° E 23:42:18 10° NNE
Cosmos 1408 Rocket 4.3 23:40:10 36° E 23:40:27 36° E 23:44:33 10° NNE
ADEOS Rocket 3.8 23:36:16 10° NNE 23:41:37 34° E 23:43:06 31° SE
SL-8 R/B 3.8 23:37:12 10° WSW 23:42:02 75° NNW 23:46:53 10° ENE
COBE Rocket 3.9 23:38:23 10° NNE 23:43:28 83° E 23:45:03 46° S
Cosmos 2315 Rocket 4.0 23:41:44 34° S 23:44:40 86° W 23:51:05 10° N
APEX 3.9 23:43:22 10° NW 23:45:54 36° W 23:45:54 36° W
USA 234 4.1 23:41:00 10° ENE 23:46:17 28° ESE 23:46:17 28° ESE
Cosmos 1076 Rocket 3.5 23:46:47 54° SSW 23:47:38 74° W 23:51:54 10° N
RESURS DK-1 3.5 23:50:15 30° E 23:50:15 30° E 23:53:13 10° NE
SL-27 R/B 3.4 23:46:06 10° N 23:49:32 38° ENE 23:49:37 38° ENE
Cosmos 1703 3.4 23:50:17 57° E 23:50:17 57° E 23:54:03 10° NNE
Meteor 1-27 4.5 23:45:26 10° N 23:51:14 62° ENE 23:53:08 41° SE
NOSS 2-2 (D) 3.5 23:53:56 56° E 23:53:56 56° E 23:57:49 10° NE
H-2A R/B 3.5 23:53:56 23° E 23:54:43 25° ENE 23:58:05 10° NNE
